{"data":{"norad_id":64902,"intl_designator":"2025-156D","name":"CO3D 2","alt_names":[],"object_type":"PAYLOAD","status":"ACTIVE","operator":null,"country":"FR","launch_date":"2025-07-26","launch_site_code":"FRGUI","launch_vehicle":null,"mission":null,"orbit_class":"UNKNOWN","rcs_meters":null,"size_class":null,"mass_kg":null,"dimensions":null,"purposes":["earth_obs"],"wikipedia_slug":null,"has_3d_model":false,"image_url":null,"decayed_at":null,"tle_current":{"epoch":"2026-09-19T13:03:48.993984Z","epoch_age_seconds":100790,"freshness":"FRESH","line1":"1 64902U 25156D   26262.54431706  .00001244  00000+0  60570-4 0  9990","line2":"2 64902  97.4341 339.7797 0001586  97.8936 262.2479 15.20195830 63867","mean_motion":15.2019583,"eccentricity":0.0001586,"inclination_deg":97.4341,"raan_deg":339.7797,"arg_perigee_deg":97.8936,"mean_anomaly_deg":262.2479,"bstar":6.057e-5,"rev_number":6386,"period_min":94.724638206645,"perigee_km":504.15770487763,"apogee_km":506.34111504687,"semimajor_km":6883.3864099623,"source":"CELESTRAK","updated_at":"2026-09-20T09:00:33.982813Z"}}}